GW3840 Weather Reports


time (UTC)temp
F
wind
direction
speed
knots
gust
knots
rain 1hr
in
rain 24hr
in
rain mn
in
humidity
%
barometer
mb
20260831085326 74 295 3.5 7.0 0.00 0.00 0.00 99 1009.1
20260831084821 74 287 6.1 8.7 0.00 0.00 0.00 99 1009.1
20260831084317 73 220 0.9 3.5 0.00 0.00 0.00 99 1009.1
20260831083813 73 232 0.9 3.5 0.00 0.00 0.00 99 1009.1
20260831083308 73 265 2.6 2.6 0.00 0.00 0.00 99 1009.2
20260831082807 73 281 1.7 1.7 0.00 0.00 0.00 99 1008.9
20260831082306 72 263 0.9 0.9 0.00 0.00 0.00 99 1009.1
20260831081758 72 260 0.0 0.0 0.00 0.00 0.00 99 1008.8
20260831081248 73 246 1.7 2.6 0.00 0.00 0.00 99 1009.0
20260831080743 72 216 3.5 3.5 0.00 0.00 0.00 99 1009.0
20260831080237 72 240 0.9 1.7 0.00 0.00 0.00 99 1009.0
20260831075733 72 238 0.9 1.7 0.00 0.00 0.00 99 1009.2
20260831075229 71 237 0.0 2.6 0.00 0.00 0.00 99 1009.1
20260831074728 71 245 0.0 0.0 0.00 0.00 0.00 99 1008.9
20260831074222 71 214 0.0 0.9 0.00 0.00 0.00 99 1008.8
20260831073718 71 218 0.0 0.9 0.00 0.00 0.00 99 1008.7
20260831073216 71 238 0.0 0.9 0.00 0.00 0.00 99 1008.7
20260831072712 71 162 0.0 1.7 0.00 0.00 0.00 99 1008.4
20260831072208 70 196 0.0 0.0 0.00 0.00 0.00 99 1008.4
20260831071708 70 219 0.0 0.0 0.00 0.00 0.00 99 1008.5
20260831071202 70 223 0.0 0.0 0.00 0.00 0.00 99 1008.5
20260831070656 69 215 0.0 0.0 0.00 0.00 0.00 99 1008.3
20260831070150 69 216 0.0 0.0 0.00 0.00 0.00 99 1008.4
20260831065650 69 192 0.0 0.0 0.00 0.00 0.00 99 1008.4
20260831065148 70 192 0.0 0.0 0.00 0.00 0.00 99 1008.5
20260831064643 70 141 0.0 0.0 0.00 0.00 0.00 99 1008.3
20260831064134 71 213 0.0 0.0 0.00 0.00 0.00 99 1008.4
20260831063630 71 115 0.0 0.0 0.00 0.00 0.00 99 1008.3
20260831063124 71 150 0.0 0.0 0.00 0.00 0.00 99 1008.2
20260831062618 71 210 0.0 0.0 0.00 0.00 0.00 99 1008.4
20260831062112 71 103 0.0 0.9 0.00 0.00 0.00 99 1008.3
20260831061610 71 137 0.0 0.0 0.00 0.00 0.00 99 1008.5
20260831061106 71 125 0.9 1.7 0.00 0.00 0.00 99 1008.3
20260831060602 71 84 0.0 0.9 0.00 0.00 0.00 99 1008.3
20260831060056 71 87 0.0 0.0 0.00 0.00 0.00 99 1008.3
20260831055551 72 109 0.9 0.9 0.00 0.00 0.00 99 1008.3
20260831055047 72 137 0.0 0.9 0.00 0.00 0.00 99 1008.4
20260831054546 72 96 0.9 1.7 0.00 0.00 0.00 99 1008.2
20260831054045 72 84 1.7 2.6 0.00 0.00 0.00 99 1008.4
20260831053544 72 140 0.0 0.9 0.00 0.00 0.00 99 1008.4
20260831053039 72 123 0.9 1.7 0.00 0.00 0.00 99 1008.6
20260831052538 72 102 1.7 2.6 0.00 0.00 0.00 99 1008.5
20260831052037 72 80 0.9 2.6 0.00 0.00 0.00 99 1008.5
20260831051535 72 76 2.6 2.6 0.00 0.00 0.00 99 1008.1
20260831051030 73 37 1.7 3.5 0.00 0.00 0.00 98 1008.3
20260831050529 72 99 0.9 1.7 0.00 0.00 0.00 98 1008.2
20260831050028 73 115 0.9 3.5 0.00 0.00 0.00 98 1008.3
20260831045527 73 121 0.9 3.5 0.00 0.00 0.00 98 1008.2
20260831045022 73 105 1.7 5.2 0.00 0.00 0.00 98 1008.3
20260831044518 73 111 0.9 2.6 0.00 0.00 0.00 98 1008.3
20260831044013 73 100 0.9 5.2 0.00 0.00 0.00 97 1008.3
20260831043513 73 117 3.5 7.0 0.00 0.00 0.00 97 1008.4
20260831043008 73 140 2.6 3.5 0.00 0.00 0.00 97 1008.7
20260831042508 73 122 2.6 6.1 0.00 0.00 0.00 97 1008.6
20260831042003 73 161 2.6 7.0 0.00 0.00 0.00 97 1008.7
20260831041458 73 105 2.6 7.0 0.00 0.00 0.00 96 1008.9
20260831040957 73 146 1.7 5.2 0.00 0.00 0.00 96 1008.8
20260831040453 73 88 5.2 7.8 0.00 0.00 0.00 96 1009.0
20260831035950 73 180 0.9 5.2 0.00 0.00 0.00 96 1009.0
20260831035449 73 148 3.5 5.2 0.00 0.00 0.00 96 1009.0
20260831034944 74 75 3.5 3.5 0.00 0.00 0.00 96 1009.3
20260831034439 74 109 3.5 6.1 0.00 0.00 0.00 95 1009.1
20260831033934 74 104 3.5 6.1 0.00 0.00 0.00 95 1009.5
20260831033430 74 52 2.6 3.5 0.00 0.00 0.00 95 1009.4
20260831032926 74 126 4.3 7.8 0.00 0.00 0.00 95 1009.3
20260831032425 74 165 2.6 7.0 0.00 0.00 0.00 95 1009.4
20260831031920 74 98 4.3 5.2 0.00 0.00 0.00 95 1009.2
20260831031420 74 113 4.3 7.0 0.00 0.00 0.00 95 1009.3
20260831030914 74 174 2.6 5.2 0.00 0.00 0.00 95 1009.3
20260831030413 74 174 0.9 5.2 0.00 0.00 0.00 94 1009.4
20260831025912 74 146 1.7 7.0 0.00 0.00 0.00 94 1009.2
20260831025412 74 98 4.3 7.8 0.00 0.00 0.00 95 1009.2
20260831024908 74 82 4.3 7.0 0.00 0.00 0.00 95 1009.0
20260831024407 74 97 3.5 6.1 0.00 0.00 0.00 94 1009.1
20260831023907 74 56 6.1 7.0 0.00 0.00 0.00 94 1008.8
20260831023405 74 56 3.5 7.0 0.00 0.00 0.00 94 1008.8
20260831022901 74 96 3.5 8.7 0.00 0.00 0.00 94 1008.9
20260831022359 74 80 1.7 6.1 0.00 0.00 0.00 94 1008.7
20260831021854 74 73 5.2 8.7 0.00 0.00 0.00 94 1008.7
20260831021348 74 114 1.7 7.8 0.00 0.00 0.00 94 1008.7
20260831020844 74 111 1.7 5.2 0.00 0.00 0.00 94 1008.6
20260831020338 75 146 0.9 6.1 0.00 0.00 0.00 93 1008.5
20260831015834 75 85 2.6 8.7 0.00 0.00 0.00 93 1008.5
20260831015330 75 163 3.5 7.0 0.00 0.00 0.00 93 1008.4
20260831014829 75 166 1.7 5.2 0.00 0.00 0.00 93 1008.4
20260831014324 75 91 4.3 6.1 0.00 0.00 0.00 93 1008.3
20260831013820 75 103 6.1 7.8 0.00 0.00 0.00 93 1008.4
20260831013319 75 142 1.7 7.0 0.00 0.00 0.00 92 1008.5
20260831012814 75 84 3.5 6.1 0.00 0.00 0.00 92 1008.4
20260831012310 75 106 2.6 5.2 0.00 0.00 0.00 92 1008.7
20260831011803 75 82 6.1 7.0 0.00 0.00 0.00 92 1008.5
20260831011258 75 194 2.6 6.1 0.00 0.00 0.00 91 1008.7
20260831010754 75 94 4.3 7.8 0.00 0.00 0.00 91 1008.6
20260831010248 75 86 1.7 7.0 0.00 0.00 0.00 91 1008.7
20260831005744 76 151 2.6 6.1 0.00 0.00 0.00 91 1008.8
20260831005239 76 66 7.0 7.8 0.00 0.00 0.00 91 1009.0
20260831004734 76 111 2.6 5.2 0.00 0.00 0.00 90 1008.9
20260831004231 76 134 4.3 6.1 0.00 0.00 0.00 90 1008.7
20260831003726 76 64 1.7 3.5 0.00 0.00 0.00 89 1008.8
20260831003222 76 100 5.2 6.1 0.00 0.00 0.00 89 1009.0
20260831002721 77 142 0.9 5.2 0.00 0.00 0.00 89 1008.8
20260831002215 77 137 1.7 11.3 0.00 0.00 0.00 88 1008.9
20260831001713 77 102 1.7 7.0 0.00 0.00 0.00 88 1008.7
20260831001212 77 96 3.5 7.0 0.00 0.00 0.00 88 1008.8
20260831000709 77 119 1.7 7.0 0.00 0.00 0.00 88 1008.8
20260831000204 77 54 7.8 12.2 0.00 0.00 0.00 87 1008.7
20260830235703 77 161 3.5 7.8 0.00 0.00 0.00 86 1008.6
20260830235158 77 92 3.5 7.8 0.00 0.00 0.00 86 1008.9
20260830234653 77 113 4.3 7.8 0.00 0.00 0.00 86 1009.2
20260830234149 77 95 4.3 7.0 0.00 0.00 0.00 86 1009.1
20260830233644 78 177 2.6 3.5 0.00 0.00 0.00 85 1009.2
20260830233139 78 149 1.7 7.8 0.00 0.00 0.00 85 1009.4
20260830232635 78 55 3.5 7.8 0.00 0.00 0.00 85 1009.5
20260830232130 77 115 5.2 6.1 0.00 0.00 0.00 85 1009.5
20260830231626 78 84 7.0 11.3 0.00 0.00 0.00 86 1009.4
20260830231120 78 110 5.2 7.8 0.00 0.00 0.00 85 1009.6
20260830230616 78 96 2.6 7.8 0.00 0.00 0.00 85 1009.5
20260830230115 78 93 6.1 7.8 0.00 0.00 0.00 85 1009.4
20260830225610 77 67 0.9 7.0 0.00 0.00 0.00 86 1009.4
20260830225105 77 88 3.5 7.0 0.00 0.00 0.00 86 1009.6
20260830224603 77 98 5.2 11.3 0.00 0.00 0.00 85 1009.5
20260830224100 77 102 3.5 8.7 0.00 0.00 0.00 85 1009.6
20260830223557 77 117 1.7 9.6 0.00 0.00 0.00 86 1009.7
20260830223057 77 83 6.1 8.7 0.00 0.00 0.00 86 1010.0
20260830222551 77 111 2.6 3.5 0.00 0.00 0.00 86 1010.2
20260830222048 77 53 1.7 2.6 0.00 0.00 0.00 86 1010.4
20260830221543 77 110 1.7 7.8 0.00 0.00 0.00 86 1010.1
20260830221039 77 173 2.6 5.2 0.00 0.00 0.00 86 1010.1
20260830220538 77 115 0.9 6.1 0.00 0.00 0.00 86 1009.7
20260830220037 77 35 3.5 11.3 0.00 0.00 0.00 86 1009.9
20260830215532 77 81 1.7 7.0 0.00 0.00 0.00 84 1009.6
20260830215027 78 170 4.3 7.0 0.00 0.00 0.00 84 1009.7
20260830214522 78 153 5.2 8.7 0.00 0.00 0.00 82 1009.6
20260830214021 78 114 1.7 7.0 0.00 0.00 0.00 84 1009.4
20260830213516 78 106 6.1 8.7 0.00 0.00 0.00 83 1009.7
20260830213012 79 145 3.5 7.8 0.00 0.00 0.00 82 1009.7
20260830212507 80 93 4.3 13.0 0.00 0.00 0.00 80 1009.6
20260830212002 79 170 0.9 7.8 0.00 0.00 0.00 82 1009.4
20260830211456 78 120 3.5 9.6 0.00 0.00 0.00 82 1009.4
20260830210951 79 111 3.5 8.7 0.00 0.00 0.00 81 1009.4
20260830210451 79 141 1.7 6.1 0.00 0.00 0.00 81 1009.4
20260830205943 80 94 3.5 8.7 0.00 0.00 0.00 80 1009.4
20260830205442 80 124 5.2 7.8 0.00 0.00 0.00 79 1009.6
20260830204938 80 229 4.3 9.6 0.00 0.00 0.00 80 1009.5
20260830204437 80 121 5.2 8.7 0.00 0.00 0.00 80 1009.6
20260830203932 81 102 4.3 7.0 0.00 0.00 0.00 79 1009.6
20260830203428 80 74 7.8 11.3 0.00 0.00 0.00 80 1009.7
20260830202927 79 92 7.0 9.6 0.00 0.00 0.00 80 1009.9
20260830202422 81 109 7.8 11.3 0.00 0.00 0.00 78 1009.9
20260830201913 81 53 5.2 7.0 0.00 0.00 0.00 78 1010.0
20260830201411 79 118 4.3 8.7 0.00 0.00 0.00 80 1010.0
20260830200907 79 77 6.1 8.7 0.00 0.00 0.00 81 1010.1
20260830200407 80 60 5.2 12.2 0.00 0.00 0.00 79 1010.0
20260830195857 81 142 2.6 7.0 0.00 0.00 0.00 77 1010.1
20260830195356 80 99 5.2 9.6 0.00 0.00 0.00 79 1010.4
20260830194854 80 223 5.2 7.8 0.00 0.00 0.00 78 1010.1
20260830194348 80 146 5.2 9.6 0.00 0.00 0.00 79 1010.2
20260830193837 80 133 5.2 7.8 0.00 0.00 0.00 79 1010.3
20260830193331 80 72 7.8 8.7 0.00 0.00 0.00 77 1010.3
20260830192827 80 17 1.7 8.7 0.00 0.00 0.00 79 1010.4
20260830192326 81 68 5.2 9.6 0.00 0.00 0.00 78 1010.4
20260830191822 81 156 5.2 12.2 0.00 0.00 0.00 78 1010.4
20260830191321 80 96 1.7 12.2 0.00 0.00 0.00 78 1010.5
20260830190818 82 88 9.6 12.2 0.00 0.00 0.00 76 1010.5
20260830190317 82 108 7.8 12.2 0.00 0.00 0.00 76 1010.6
20260830185816 81 94 5.2 11.3 0.00 0.00 0.00 76 1010.4
20260830185312 81 181 2.6 9.6 0.00 0.00 0.00 78 1010.5
20260830184807 80 82 9.6 13.0 0.00 0.00 0.00 78 1010.5
20260830184306 80 89 8.7 12.2 0.00 0.00 0.00 77 1010.5
20260830183802 80 81 2.6 5.2 0.00 0.00 0.00 78 1010.7
20260830183301 80 63 3.5 11.3 0.00 0.00 0.00 79 1010.8
20260830182756 80 197 6.1 15.6 0.00 0.00 0.00 79 1010.7
20260830182252 79 156 3.5 9.6 0.00 0.00 0.00 79 1010.6
20260830181748 79 117 3.5 5.2 0.00 0.00 0.00 79 1010.8
20260830181243 78 8 3.5 8.7 0.00 0.00 0.00 82 1010.8
20260830180742 78 53 7.0 11.3 0.00 0.00 0.00 81 1010.9
20260830180237 77 129 3.5 9.6 0.00 0.00 0.00 82 1011.0
20260830175731 77 85 5.2 8.7 0.00 0.00 0.00 83 1011.2
20260830175226 77 61 7.0 8.7 0.00 0.00 0.00 83 1011.2
20260830174721 76 106 2.6 7.8 0.00 0.00 0.00 84 1011.1
20260830174217 75 84 2.6 5.2 0.00 0.00 0.00 86 1011.1
20260830173717 75 127 1.7 11.3 0.00 0.00 0.00 86 1011.4
20260830173212 75 97 2.6 7.0 0.00 0.00 0.00 85 1011.3
20260830172709 75 118 3.5 6.1 0.00 0.00 0.00 85 1011.4
20260830172205 74 144 2.6 7.8 0.00 0.00 0.00 87 1011.3
20260830171659 75 84 3.5 12.2 0.00 0.00 0.00 86 1011.1
20260830171154 75 89 7.8 9.6 0.00 0.00 0.00 85 1011.1
20260830170649 74 114 3.5 11.3 0.00 0.00 0.00 86 1010.9
20260830170148 74 88 6.1 8.7 0.00 0.00 0.00 86 1011.2
20260830165643 74 105 3.5 7.8 0.00 0.00 0.00 87 1011.1
20260830165139 75 112 5.2 11.3 0.00 0.00 0.00 86 1011.1
20260830164635 75 98 5.2 7.0 0.00 0.00 0.00 85 1011.2
20260830164130 73 190 3.5 7.0 0.00 0.00 0.00 88 1011.2
20260830163627 73 118 5.2 9.6 0.00 0.00 0.00 89 1011.3
20260830163127 74 100 4.3 7.8 0.00 0.00 0.00 86 1011.5
20260830162622 73 102 2.6 9.6 0.00 0.00 0.00 88 1011.4
20260830162118 73 143 7.0 9.6 0.00 0.00 0.00 88 1011.5
20260830161612 73 127 3.5 5.2 0.00 0.00 0.00 89 1011.2
20260830161107 73 137 1.7 5.2 0.00 0.00 0.00 88 1011.0
20260830160603 73 53 4.3 7.8 0.00 0.00 0.00 89 1011.0
20260830160058 73 107 1.7 5.2 0.00 0.00 0.00 88 1011.0
20260830155554 73 58 5.2 11.3 0.00 0.00 0.00 88 1010.9
20260830155049 74 58 4.3 9.6 0.00 0.00 0.00 87 1010.9
20260830154544 73 27 3.5 8.7 0.00 0.00 0.00 88 1010.7
20260830154041 73 103 2.6 8.7 0.00 0.00 0.00 89 1010.9
20260830153537 72 101 1.7 7.8 0.00 0.00 0.00 89 1010.8
20260830153036 72 106 4.3 9.6 0.00 0.00 0.00 91 1011.0
20260830152531 71 65 2.6 9.6 0.00 0.00 0.00 92 1011.0
20260830152030 71 94 2.6 3.5 0.00 0.00 0.00 93 1011.1
20260830151524 70 97 5.2 12.2 0.00 0.00 0.00 93 1011.3
20260830151019 70 85 1.7 9.6 0.00 0.00 0.00 93 1011.2
20260830150519 70 109 2.6 7.8 0.00 0.00 0.00 94 1011.4
20260830150014 69 57 4.3 7.0 0.00 0.00 0.00 95 1011.5
20260830145513 69 106 2.6 6.1 0.00 0.00 0.00 96 1011.6
20260830145009 69 95 4.3 11.3 0.00 0.00 0.00 96 1011.5
20260830144504 68 106 4.3 8.7 0.00 0.00 0.00 97 1011.4
20260830143959 68 58 7.0 9.6 0.00 0.00 0.00 97 1011.3
20260830143455 68 36 3.5 6.1 0.00 0.00 0.00 98 1011.3
20260830142953 68 54 3.5 8.7 0.00 0.00 0.00 98 1011.5
20260830142449 68 91 2.6 5.2 0.00 0.00 0.00 97 1011.4
20260830141943 68 244 0.9 3.5 0.00 0.00 0.00 98 1011.3
20260830141434 68 110 1.7 3.5 0.00 0.00 0.00 99 1011.2
20260830140928 68 46 3.5 9.6 0.00 0.00 0.00 99 1011.4
20260830140424 67 69 2.6 6.1 0.00 0.00 0.00 99 1011.4
20260830135923 67 67 3.5 7.0 0.00 0.00 0.00 99 1011.2
20260830135419 67 112 5.2 7.8 0.00 0.00 0.00 99 1011.4
20260830134914 67 119 4.3 8.7 0.00 0.00 0.00 99 1011.5
20260830134409 67 112 5.2 7.0 0.00 0.00 0.00 99 1011.7
20260830133904 66 75 1.7 7.8 0.00 0.00 0.00 99 1011.4
20260830133400 66 93 3.5 11.3 0.00 0.00 0.00 99 1011.7
20260830132855 66 140 2.6 6.1 0.00 0.00 0.00 99 1011.6
20260830132351 66 41 3.5 7.8 0.00 0.00 0.00 99 1011.5
20260830131850 66 81 3.5 5.2 0.00 0.00 0.00 99 1011.6
20260830131350 66 113 0.9 5.2 0.00 0.00 0.00 99 1011.5
20260830130845 66 108 1.7 5.2 0.00 0.00 0.00 99 1011.4
20260830130341 66 86 4.3 7.0 0.00 0.00 0.00 99 1011.8
20260830125839 66 59 1.7 3.5 0.00 0.00 0.00 99 1011.8
20260830125335 66 89 3.5 5.2 0.00 0.00 0.00 99 1011.6
20260830124832 66 69 3.5 7.0 0.00 0.00 0.00 99 1011.7
20260830124327 66 45 3.5 7.8 0.00 0.00 0.00 99 1011.8
20260830123824 66 87 1.7 2.6 0.00 0.00 0.00 99 1012.0
20260830123320 66 91 2.6 5.2 0.00 0.00 0.00 99 1011.6
20260830122818 66 88 1.7 7.0 0.00 0.00 0.00 99 1011.6
20260830122313 66 98 3.5 5.2 0.00 0.00 0.00 99 1011.3
20260830121809 66 136 0.9 5.2 0.00 0.00 0.00 99 1011.3
20260830121308 66 104 1.7 6.1 0.00 0.00 0.00 99 1011.3
20260830120803 66 91 0.9 2.6 0.00 0.00 0.00 99 1011.2
20260830120259 66 71 0.9 0.9 0.00 0.00 0.00 99 1011.2
20260830115755 66 355 1.7 3.5 0.00 0.00 0.00 99 1011.0
20260830115250 66 112 3.5 5.2 0.00 0.00 0.00 99 1010.9
20260830114747 66 75 2.6 7.8 0.00 0.00 0.00 99 1010.7
20260830114242 66 130 2.6 3.5 0.00 0.00 0.00 99 1010.9
20260830113737 66 105 3.5 6.1 0.00 0.00 0.00 99 1011.1
20260830113231 66 136 2.6 3.5 0.00 0.00 0.00 99 1011.0
20260830112727 66 98 1.7 7.0 0.00 0.00 0.00 99 1011.0
20260830112223 66 83 1.7 5.2 0.00 0.00 0.00 99 1010.9
20260830111719 66 41 2.6 6.1 0.00 0.00 0.00 99 1010.7
20260830111215 66 125 4.3 6.1 0.00 0.00 0.00 99 1010.7
20260830110714 66 113 0.9 3.5 0.00 0.00 0.00 99 1010.9
20260830110211 66 88 3.5 6.1 0.00 0.00 0.00 99 1010.8
20260830105710 66 125 1.7 2.6 0.00 0.00 0.00 99 1010.8
20260830105206 67 60 2.6 6.1 0.00 0.00 0.00 99 1010.7
20260830104703 67 86 3.5 3.5 0.00 0.00 0.00 99 1010.6
20260830104159 67 75 1.7 3.5 0.00 0.00 0.00 99 1010.9
20260830103658 67 103 1.7 3.5 0.00 0.00 0.00 99 1011.0
20260830103154 67 90 0.9 5.2 0.00 0.00 0.00 99 1011.1
20260830102652 67 122 0.9 3.5 0.00 0.00 0.00 99 1011.2
20260830102148 67 60 1.7 1.7 0.00 0.00 0.00 99 1011.3
20260830101644 67 66 0.9 2.6 0.00 0.00 0.00 99 1011.4
20260830101138 67 116 1.7 3.5 0.00 0.00 0.00 99 1011.1
20260830100632 67 73 2.6 3.5 0.00 0.00 0.00 99 1011.6
20260830100126 67 94 1.7 2.6 0.00 0.00 0.00 99 1011.6
20260830095625 67 54 2.6 3.5 0.00 0.00 0.00 99 1011.4
20260830095122 67 96 1.7 2.6 0.00 0.00 0.00 99 1011.3
20260830094618 67 108 3.5 6.1 0.00 0.00 0.00 99 1011.7
20260830094113 67 62 1.7 3.5 0.00 0.00 0.00 99 1011.5
20260830093603 67 122 0.9 1.7 0.00 0.00 0.00 99 1011.4
20260830093059 67 98 1.7 2.6 0.00 0.00 0.00 99 1011.6
20260830092553 67 81 4.3 7.0 0.00 0.00 0.00 99 1011.5
20260830092051 67 163 0.9 1.7 0.00 0.00 0.00 99 1011.4
20260830091545 67 131 0.9 3.5 0.00 0.00 0.00 99 1011.4
20260830091044 67 121 0.0 5.2 0.00 0.00 0.00 99 1011.4
20260830090534 67 65 2.6 5.2 0.00 0.00 0.00 99 1011.4
20260830090029 67 121 1.7 3.5 0.00 0.00 0.00 99 1011.5